[[{"header":{"parameterUnit":"m.s-1","parameterCategory":1,"la1":30.2991,"la2":30.254,"lo1":-89.0895,"lo2":-89.0444,"dy":0.0017,"dx":0.0017,"nx":28,"ny":28,"refTime":"2025-08-05T03:00:00:Z","depth":0,"parameterNumber":2,"parameterNumberName":"U-component_of_WINDS"},"data":[0,0,0,0,0,0,0,0,0,0,0,0,0,0,0,0,0,0,0,0,0,0,0,0,0,0,0,0,0,0,0,0,0,0,0,0,0,0,0,0,0,0,0,0,0,0,0,0,0,0,0,0,0,0,0,0,0,0,-3.2502,-3.2502,0,-3.2472,-3.2472,-3.2471,-3.2389,-3.2387,-3.2385,-3.2383,-3.2354,-3.2354,-3.2355,0,0,0,0,0,0,0,0,0,0,0,0,0,-3.2488,-3.2489,-3.2502,-3.2502,-3.2501,-3.2472,-3.2472,-3.2471,-3.2389,-3.2387,-3.2385,-3.2383,-3.2353,-3.2354,-3.2355,0,0,0,0,0,0,0,0,0,0,0,0,0,-3.248,-3.2489,-3.2502,-3.2457,-3.2452,-3.2472,-3.2472,-3.2471,-3.2389,-3.2387,-3.2384,-3.2382,-3.2353,-3.2354,-3.2356,-3.2417,0,0,-3.236,-3.236,0,0,0,0,0,0,0,0,-3.2481,-3.2481,-3.2464,-3.246,-3.2455,-3.2431,-3.2456,-3.2453,-3.239,-3.2413,-3.2383,-3.238,-3.2382,-3.238,-3.2381,-3.2416,-3.2415,-3.236,-3.236,-3.2361,-3.2361,0,0,0,0,0,0,0,-3.2481,-3.2481,-3.249,-3.2464,-3.2458,-3.2438,-3.2434,-3.2455,-3.2413,-3.2411,-3.2405,-3.2403,-3.2379,-3.238,-3.2379,-3.2414,-3.236,-3.2361,-3.2362,-3.2362,-3.2496,-3.2499,0,0,0,0,0,0,-3.2488,-3.2482,-3.2491,-3.2489,-3.2461,-3.244,-3.2436,-3.2442,-3.2413,-3.2405,-3.2405,-3.2399,-3.2379,-3.2378,-3.2378,-3.2446,-3.2361,-3.2362,-3.2363,-3.2493,-3.2497,-3.25,0,0,0,0,0,0,-3.2488,-3.249,-3.2492,-3.2484,-3.2483,-3.2443,-3.2451,-3.2443,-3.2443,-3.2408,-3.24,-3.2413,-3.2377,-3.2376,-3.2408,-3.2444,-3.2363,-3.2364,-3.249,-3.2494,-3.2498,-3.2585,0,0,0,0,0,0,-3.2488,-3.249,-3.2513,-3.2485,-3.2484,-3.2523,-3.2453,-3.2444,-3.2446,-3.2437,-3.2414,-3.2407,-3.2375,-3.2406,-3.2409,-3.2445,-3.2365,-3.2487,-3.2492,-3.2497,-3.2579,-3.2592,-3.2603,0,0,0,0,0,-3.2488,-3.254,-3.2515,-3.2517,-3.2512,-3.2525,-3.2524,-3.2485,-3.2449,-3.2471,-3.2449,-3.2408,-3.244,-3.241,-3.2412,-3.2449,-3.2484,-3.2491,-3.2497,-3.2573,-3.2589,-3.2603,0,0,0,0,0,0,-3.2574,-3.2535,-3.2507,-3.2552,-3.2542,-3.2511,-3.2538,-3.2503,-3.2504,-3.2496,-3.2448,-3.2444,-3.2481,-3.2469,-3.2435,-3.2506,-3.2455,-3.2463,-3.2513,-3.2528,-3.254,-3.2541,-3.2366,0,0,0,0,0,-3.2598,-3.2612,-3.2577,-3.262,-3.2616,-3.2578,-3.2583,-3.2553,-3.2542,-3.2537,-3.2517,-3.2507,-3.2515,-3.2521,-3.2526,-3.2577,-3.257,-3.2604,-3.2616,-3.2626,-3.2632,-3.2656,-3.267,-3.252,-3.252,-3.252,0,0,-3.2648,-3.2628,-3.264,-3.2636,-3.2625,-3.264,-3.2576,-3.2595,-3.2605,-3.254,-3.2568,-3.2553,-3.2539,-3.258,-3.2597,-3.257,-3.2672,-3.2634,-3.2642,-3.2642,-3.2664,-3.2678,-3.269,-3.2525,-3.2524,-3.2523,0,0,-3.2745,-3.2733,-3.2766,-3.2756,-3.274,-3.2714,-3.2723,-3.2696,-3.2683,-3.271,-3.2662,-3.2674,-3.2689,-3.268,-3.2677,-3.2771,-3.2733,-3.2775,-3.2837,-3.2861,-3.2873,-3.2883,-3.2914,-3.2926,-3.2781,-3.2781,-3.2782,0,-3.2809,-3.2829,-3.2787,-3.2808,-3.2808,-3.275,-3.2782,-3.2775,-3.2762,-3.2763,-3.2733,-3.2749,-3.2736,-3.2773,-3.2796,-3.2797,-3.2803,-3.2776,-3.2874,-3.2884,-3.2893,-3.2922,-3.2935,-3.2786,-3.2786,-3.2785,-3.2785,0,-3.2908,-3.2923,-3.2951,-3.2939,-3.2941,-3.2969,-3.293,-3.2938,-3.2908,-3.2886,-3.2913,-3.2895,-3.2895,-3.2902,-3.2874,-3.2935,-3.2919,-3.2883,-3.283,-3.2913,-3.2939,-3.2951,-3.2793,-3.2792,-3.279,-3.2789,0,0,-3.3058,-3.3021,-3.3032,-3.3025,-3.3003,-3.3014,-3.3038,-3.3037,-3.3044,-3.3037,-3.3055,-3.3069,-3.3035,-3.3032,-3.3003,-3.3024,-3.3097,-3.2985,-3.2984,-3.3005,-3.3161,-3.3187,-3.32,-3.3073,-3.3075,-3.3076,-3.3161,0,-3.3148,-3.3186,-3.3149,-3.3194,-3.3207,-3.3152,-3.3172,-3.3161,-3.3141,-3.3148,-3.3126,-3.3135,-3.3091,-3.3089,-3.3108,-3.3085,-3.3128,-3.3078,-3.3088,-3.3089,-3.3091,-3.3215,-3.3242,-3.3323,-3.3172,-3.3174,-3.3175,0,-3.3259,-3.3255,-3.3302,-3.3276,-3.3279,-3.3299,-3.3294,-3.3302,-3.3288,-3.3272,-3.3269,-3.3233,-3.3254,-3.3204,-3.3232,-3.3199,-3.3201,-3.3191,-3.3193,-3.3191,-3.3135,-3.3214,-3.3348,-3.336,-3.3191,-3.319,-3.3189,0,-3.3361,-3.3369,-3.3397,-3.3393,-3.3363,-3.3378,-3.3366,-3.335,-3.3351,-3.3347,-3.3347,-3.3347,-3.3346,-3.3346,-3.3311,-3.3278,-3.3343,-3.3291,-3.3329,-3.333,-3.3343,-3.3342,-3.3478,-3.3348,-3.3348,-3.3348,-3.3348,0,-3.3464,-3.3495,-3.3442,-3.3459,-3.3491,-3.3448,-3.3481,-3.3464,-3.3449,-3.3462,-3.3415,-3.3428,-3.3381,-3.3389,-3.3362,-3.3388,-3.3389,-3.3375,-3.3367,-3.3378,-3.338,-3.3378,-3.337,-3.3351,-3.3351,-3.335,-3.3349,0,-3.3583,-3.3549,-3.3576,-3.3546,-3.3539,-3.3563,-3.3537,-3.3552,-3.3528,-3.3545,-3.3546,-3.351,-3.3516,-3.3481,-3.3483,-3.3464,-3.3503,-3.3487,-3.3508,-3.3502,-3.3541,-3.3537,-3.3678,-3.3693,-3.3556,-3.3558,-3.3559,0,-3.365,-3.3672,-3.3643,-3.3648,-3.3639,-3.3647,-3.3648,-3.3607,-3.3609,-3.3594,-3.361,-3.3613,-3.3613,-3.3626,-3.36,-3.36,-3.3582,-3.3631,-3.3582,-3.3591,-3.358,-3.3578,-3.3579,-3.3641,-3.3643,-3.3644,-3.3645,0,-3.3772,-3.3754,-3.3757,-3.3754,-3.3756,-3.3752,-3.3744,-3.3751,-3.3706,-3.3711,-3.3717,-3.3717,-3.3717,-3.372,-3.3715,-3.3703,-3.3666,-3.3661,-3.367,-3.368,-3.369,-3.3683,-3.3534,-3.3658,-3.3657,-3.3656,-3.3655,-3.3655,-3.3866,-3.3882,-3.3864,-3.3868,-3.3858,-3.3852,-3.3863,-3.3841,-3.3845,-3.3841,-3.3817,-3.3827,-3.3811,-3.38,-3.3792,-3.3799,-3.3775,-3.3788,-3.3791,-3.3794,-3.38,-3.3691,-3.3798,-3.3798,-3.3797,-3.3797,-3.3796,0,-3.3984,-3.3969,-3.3974,-3.3964,-3.3967,-3.3933,-3.3922,-3.3927,-3.3937,-3.3925,-3.3925,-3.3932,-3.3934,-3.3908,-3.3907,-3.3917,-3.39,-3.3918,-3.3916,-3.3913,-3.3822,-3.3814,-3.3932,-3.3932,-3.3932,-3.3932,-3.3932,-3.3932,-3.4045,-3.4069,-3.4049,-3.4068,-3.4053,-3.4062,-3.4059,-3.4053,-3.4043,-3.4052,-3.4054,-3.4036,-3.4018,-3.4015,-3.4016,-3.4008,-3.4009,-3.4032,-3.4018,-3.3933,-3.392,-3.3907,-3.3899,-3.4033,-3.4033,-3.4108,-3.4109,-3.411]},{"header":{"parameterUnit":"m.s-1","parameterCategory":1,"la1":30.2991,"la2":30.254,"lo1":-89.0895,"lo2":-89.0444,"dy":0.0017,"dx":0.0017,"nx":28,"ny":28,"refTime":"2025-08-05T03:00:00:Z","depth":0,"parameterNumber":3,"parameterNumberName":"V-component_of_WINDS"},"data":[0,0,0,0,0,0,0,0,0,0,0,0,0,0,0,0,0,0,0,0,0,0,0,0,0,0,0,0,0,0,0,0,0,0,0,0,0,0,0,0,0,0,0,0,0,0,0,0,0,0,0,0,0,0,0,0,0,0,0.2505,0.2504,0,0.2447,0.2446,0.2446,0.2394,0.2393,0.2393,0.2392,0.2331,0.233,0.2328,0,0,0,0,0,0,0,0,0,0,0,0,0,0.257,0.2569,0.2505,0.2504,0.2503,0.2447,0.2446,0.2445,0.2394,0.2393,0.2392,0.2392,0.2331,0.233,0.2328,0,0,0,0,0,0,0,0,0,0,0,0,0,0.253,0.2569,0.2505,0.2471,0.2467,0.2447,0.2446,0.2445,0.2394,0.2393,0.2392,0.2391,0.2331,0.233,0.2328,0.2336,0,0,0.2323,0.2323,0,0,0,0,0,0,0,0,0.2532,0.2528,0.2477,0.2473,0.2469,0.2427,0.2447,0.2409,0.2394,0.2422,0.2392,0.2391,0.2363,0.2359,0.235,0.2333,0.2331,0.2323,0.2322,0.2321,0.2321,0,0,0,0,0,0,0,0.2535,0.253,0.2482,0.2476,0.2471,0.2458,0.2452,0.2439,0.2398,0.2419,0.2415,0.2409,0.2361,0.2352,0.2348,0.233,0.2323,0.2322,0.2321,0.232,0.2319,0.2319,0,0,0,0,0,0,0.2543,0.2533,0.2484,0.248,0.2499,0.2458,0.245,0.2441,0.2398,0.2391,0.241,0.2407,0.2355,0.235,0.2346,0.2353,0.2321,0.232,0.2319,0.2318,0.2319,0.232,0,0,0,0,0,0,0.2545,0.254,0.2486,0.2505,0.2497,0.2458,0.2448,0.2441,0.2431,0.2391,0.2384,0.2408,0.2354,0.2348,0.234,0.235,0.2319,0.2318,0.2317,0.2318,0.2319,0.2368,0,0,0,0,0,0,0.2547,0.254,0.2543,0.2506,0.2497,0.2481,0.2448,0.244,0.2429,0.2424,0.2388,0.2381,0.2353,0.2342,0.2338,0.2347,0.2316,0.2315,0.2317,0.2319,0.2365,0.2371,0.2375,0,0,0,0,0,0.255,0.2558,0.2543,0.2538,0.2499,0.2482,0.2477,0.2445,0.243,0.2432,0.2407,0.2382,0.235,0.2342,0.2336,0.2346,0.2315,0.2317,0.2319,0.2363,0.2369,0.2375,0,0,0,0,0,0,0.2597,0.2553,0.2536,0.2533,0.2512,0.2473,0.2475,0.2453,0.2435,0.2432,0.2393,0.2385,0.2381,0.2362,0.2354,0.2352,0.2329,0.233,0.2364,0.237,0.2375,0.238,0.2315,0,0,0,0,0,0.2607,0.2597,0.2559,0.256,0.255,0.2515,0.2506,0.2484,0.246,0.245,0.2424,0.2402,0.2387,0.2378,0.2361,0.2362,0.2354,0.2366,0.2372,0.2376,0.2377,0.2377,0.2382,0.2327,0.2327,0.2327,0,0,0.2627,0.2602,0.2598,0.2569,0.2549,0.254,0.2507,0.2498,0.2491,0.2449,0.2439,0.242,0.2392,0.2389,0.2386,0.2373,0.2391,0.2379,0.2383,0.2381,0.238,0.2385,0.239,0.2328,0.2328,0.2328,0,0,0.266,0.264,0.2639,0.2621,0.2593,0.257,0.257,0.2535,0.2521,0.2512,0.248,0.2471,0.2446,0.2427,0.2415,0.2443,0.242,0.2439,0.2466,0.2467,0.2471,0.2475,0.2485,0.2489,0.2441,0.2441,0.2441,0,0.2689,0.2673,0.2641,0.2634,0.2622,0.2586,0.2585,0.2569,0.2537,0.253,0.2516,0.2485,0.2464,0.2456,0.2463,0.2454,0.2453,0.2443,0.2473,0.2477,0.2479,0.2489,0.2493,0.2443,0.2443,0.2443,0.2443,0,0.271,0.27,0.2703,0.2674,0.2663,0.2659,0.2626,0.2619,0.2598,0.2577,0.2568,0.2542,0.252,0.2517,0.2496,0.2507,0.25,0.2481,0.2456,0.2488,0.2496,0.25,0.2447,0.2446,0.2445,0.2445,0,0,0.2769,0.2725,0.2726,0.2713,0.2681,0.2672,0.2667,0.2647,0.2642,0.2622,0.2617,0.2597,0.258,0.2566,0.2543,0.2544,0.2569,0.2524,0.2523,0.2533,0.2579,0.2594,0.2599,0.2553,0.2554,0.2554,0.2582,0,0.2796,0.2785,0.2757,0.2755,0.2746,0.2712,0.2707,0.2687,0.2667,0.2657,0.2634,0.2621,0.2599,0.2591,0.259,0.2566,0.2577,0.2563,0.2548,0.2547,0.2555,0.2603,0.2618,0.2645,0.2585,0.2585,0.2586,0,0.2826,0.2809,0.2807,0.2776,0.2771,0.2768,0.2748,0.2738,0.2715,0.2701,0.2687,0.2662,0.2655,0.2633,0.2623,0.2615,0.2607,0.2594,0.2595,0.2591,0.2568,0.2601,0.2653,0.2657,0.259,0.259,0.259,0,0.2869,0.2846,0.2842,0.2832,0.2796,0.2795,0.278,0.2756,0.2747,0.2729,0.2723,0.2705,0.2695,0.2682,0.2653,0.264,0.2646,0.2622,0.2634,0.2635,0.2636,0.2636,0.2687,0.2632,0.2632,0.2632,0.2632,0,0.2902,0.2902,0.2861,0.2859,0.2858,0.2826,0.2825,0.2807,0.2787,0.278,0.2749,0.2744,0.2706,0.2696,0.2674,0.2669,0.2665,0.2653,0.2647,0.2655,0.2657,0.2649,0.2646,0.2633,0.2632,0.2632,0.2632,0,0.295,0.2923,0.2916,0.2884,0.2876,0.2876,0.2848,0.2845,0.2824,0.2816,0.2812,0.2779,0.2766,0.2737,0.2715,0.27,0.2701,0.269,0.2709,0.2705,0.2719,0.2718,0.2766,0.2771,0.2713,0.2714,0.2714,0,0.2972,0.2972,0.294,0.2934,0.292,0.2911,0.2901,0.287,0.2862,0.2836,0.2836,0.2821,0.2807,0.2787,0.2761,0.2745,0.2733,0.2752,0.273,0.274,0.2734,0.2734,0.2734,0.2756,0.2757,0.2757,0.2758,0,0.3016,0.3003,0.299,0.2974,0.2964,0.295,0.2933,0.293,0.2895,0.2887,0.2874,0.2863,0.2843,0.2828,0.2808,0.2792,0.2769,0.2765,0.2767,0.2775,0.2786,0.2781,0.2722,0.2764,0.2763,0.2763,0.2762,0.2762,0.3051,0.3049,0.3027,0.3015,0.3,0.2986,0.2982,0.2961,0.295,0.2931,0.2913,0.2902,0.288,0.2852,0.2838,0.2828,0.2817,0.2819,0.282,0.2821,0.2825,0.2789,0.2825,0.2824,0.2824,0.2824,0.2824,0,0.3093,0.3077,0.3067,0.3046,0.3037,0.3017,0.2999,0.2992,0.2983,0.2965,0.2953,0.2938,0.2924,0.2898,0.2882,0.288,0.2869,0.2876,0.2876,0.2873,0.2836,0.2836,0.2886,0.2886,0.2886,0.2886,0.2886,0.2886,0.3113,0.311,0.3094,0.3083,0.3068,0.3057,0.3048,0.3036,0.3021,0.3007,0.2996,0.2979,0.2958,0.294,0.2927,0.292,0.2915,0.2926,0.2915,0.2881,0.2875,0.287,0.287,0.2925,0.2925,0.2953,0.2953,0.2953]}]]